Bogota, Colombia

11:50 PM COT on September 29, 2016 (GMT -0500)
Eldorado International

Weather History for SKBO - September, 2013

Change the Weather History Date:

Wednesday, September 18, 2013

  Actual Average Record
Temperature  
Mean Temperature 57 °F -  
Max Temperature 65 °F 65 °F 84 °F (2003)
Min Temperature 49 °F 44 °F 39 °F (1997)
Degree Days  
Heating Degree Days 8    
Growing Degree Days 7 (Base 50)    
Moisture  
Dew Point 49 °F    
Average Humidity 75    
Maximum Humidity 94    
Minimum Humidity 39    
Precipitation  
Precipitation 0.01 in - - ()
Sea Level Pressure  
Sea Level Pressure 30.31 in    
Wind  
Wind Speed 6 mph ()    
Max Wind Speed 21 mph    
Max Gust Speed -    
Visibility 6.5 miles    
Events      
Averages and records for this station are not official NWS values.
T = Trace of Precipitation, MM = Missing Value Source: Averaged Metar Reports

Daily Weather History Graph

Daily Weather History Graph

Search for Another Location

Airport or City:

Trip Planner

Search our weather history database for the weather conditions in past years. The results will help you decide how hot, cold, wet, or windy it might be!

Date:

Astronomy

Sep. 18, 2013 Rise Set
Actual Time 5:46 AM COT 5:54 PM COT
Civil Twilight 5:26 AM COT 6:15 PM COT
Nautical Twilight 5:01 AM COT 6:39 PM COT
Astronomical Twilight 4:37 AM COT 7:03 PM COT
Moon 5:18 PM COT (9/18) 4:50 AM COT (9/18)
Length of Visible Light 12h 49m
Length of Day
12h 07m
Waxing Gibbous, 99% of the Moon is Illuminated
Sep 18
Waxing Gibbous
Sep 19
Full
Sep 26
Last Quarter
Oct 4
New
Oct 11
First Quarter

Hourly Weather History & Observations

Time (COT) Temp. Dew Point Humidity Pressure Visibility Wind Dir Wind Speed Gust Speed Precip Events Conditions
12:00 AM 53.6 °F 48.2 °F 82% 30.32 in 6.2 mi NE 5.8 mph - N/A   Mostly Cloudy
1:00 AM 53 °F 49 °F 83%  in 9 mi North 4.5 mph - -   Haze
1:00 AM 51.8 °F 50.0 °F 94% 30.30 in 6.2 mi North 3.5 mph - N/A   Scattered Clouds
2:00 AM 51.8 °F 50.0 °F 94% 30.27 in 6.2 mi Variable 2.3 mph - N/A   Scattered Clouds
3:00 AM 50.0 °F 48.2 °F 94% 30.26 in 6.2 mi Variable 2.3 mph - N/A   Scattered Clouds
4:00 AM 51 °F 49 °F 89%  in 9 mi NE 6.7 mph - -   Haze
4:00 AM 50.0 °F 48.2 °F 94% 30.27 in 6.2 mi NE 6.9 mph - N/A   Partly Cloudy
5:00 AM 51.8 °F 50.0 °F 94% 30.27 in 6.2 mi NE 3.5 mph - N/A   Scattered Clouds
5:30 AM 50.0 °F 48.2 °F 94% 30.29 in 6.2 mi NE 4.6 mph - N/A   Scattered Clouds
6:00 AM 51.8 °F 50.0 °F 94% 30.30 in 6.2 mi West 4.6 mph - N/A   Scattered Clouds
7:00 AM 52 °F 50 °F 92%  in 5 mi NW 2.2 mph - -   Partly Cloudy
7:00 AM 51.8 °F 50.0 °F 94% 30.33 in 5.0 mi Variable 2.3 mph - N/A   Scattered Clouds
8:00 AM 55.4 °F 51.8 °F 88% 30.35 in 3.7 mi NNE 5.8 mph - N/A   Light Drizzle
9:00 AM 57.2 °F 53.6 °F 88% 30.35 in 3.7 mi ENE 5.8 mph - N/A   Mostly Cloudy
10:00 AM 61 °F 51 °F 62%  in 7 mi NNE 2.2 mph - -   Mostly Cloudy
10:00 AM 60.8 °F 51.8 °F 72% 30.35 in 6.2 mi Variable 2.3 mph - N/A   Mostly Cloudy
11:00 AM 66.2 °F 46.4 °F 49% 30.33 in 6.2 mi South 11.5 mph - N/A   Scattered Clouds
12:00 PM 64.4 °F 46.4 °F 52% 30.31 in 6.2 mi SSE 13.8 mph - N/A   Scattered Clouds
1:00 PM 65 °F 46 °F 39%  in 9 mi South 20.1 mph - -   Partly Cloudy
1:00 PM 64.4 °F 46.4 °F 52% 30.28 in 6.2 mi South 20.7 mph - N/A   Scattered Clouds
2:00 PM 66.2 °F 46.4 °F 49% 30.25 in 6.2 mi SE 16.1 mph - N/A   Scattered Clouds
3:00 PM 64.4 °F 48.2 °F 56% 30.24 in 6.2 mi SSE 15.0 mph - N/A   Mostly Cloudy
4:00 PM 63 °F 48 °F 47%  in - SE 8.9 mph - -   Overcast
4:00 PM 62.6 °F 48.2 °F 59% 30.24 in 6.2 mi SE 9.2 mph - N/A   Light Drizzle
5:00 PM 59.0 °F 46.4 °F 63% 30.27 in 5.6 mi SE 13.8 mph - N/A   Scattered Clouds
6:00 PM 59.0 °F 46.4 °F 63% 30.30 in 5.6 mi ESE 11.5 mph - N/A   Scattered Clouds
7:00 PM 58 °F 49 °F 62%  in 11 mi East 4.5 mph - -   Haze
7:00 PM 57.2 °F 48.2 °F 72% 30.31 in 6.2 mi East 4.6 mph - N/A   Scattered Clouds
8:00 PM 55.4 °F 46.4 °F 72% 30.35 in 6.2 mi ENE 5.8 mph - N/A   Scattered Clouds
9:00 PM 55.4 °F 51.8 °F 88% 30.38 in 6.2 mi ENE 3.5 mph - N/A   Mostly Cloudy
10:00 PM 56 °F 51 °F 79%  in 11 mi ENE 4.5 mph - -   Haze
10:00 PM 55.4 °F 51.8 °F 88% 30.38 in 6.2 mi ENE 3.5 mph - N/A   Mostly Cloudy
11:00 PM 55.4 °F 48.2 °F 77% 30.38 in 6.2 mi North 6.9 mph - N/A   Mostly Cloudy